Location: Byszew
(52.1813°N, 19.2693°E)
Time: 23:22:41
(UTC+00:00)

Envisat - Pass Details

Date: 04 February 2022
Orbit: 764 x 765 km, 98.2° (Epoch: 22 May)

Event Time Altitude Azimuth Distance (km) Brightness Sun altitude
Rises 05:19:32 0° 6° (N) 3,245 6.2 -9.4°
Reaches altitude 10° 05:22:18 10° 352° (N) 2,315 5.3 -8.9°
Maximum altitude 05:26:05 22° 304° (WNW) 1,653 4.2 -8.4°
Drops below altitude 10° 05:29:51 10° 255° (WSW) 2,305 5.0 -7.8°
Sets 05:32:37 0° 240° (WSW) 3,227 5.8 -7.4°
